This is the latest recevied weather packets stored in our database for station/object 9W2GND-1. If no packets are shown the sender has not sent any weather packets the latest 10 day(s).
| Time | Temp. | Humidity | Pressure | Rain* | Wind** | Luminosity | Snow |
|---|---|---|---|---|---|---|---|
| 1778246622 | 26.67° C | 83% | 1012.8 hPa | - | - | - | - |
| 1778245721 | 27.22° C | 83% | 1012.7 hPa | - | - | - | - |
| 1778243027 | 27.22° C | 83% | 1012.5 hPa | - | - | - | - |
| 1778242127 | 27.22° C | 83% | 1012.4 hPa | - | - | - | - |
| 1778241227 | 27.78° C | 83% | 1012.4 hPa | - | - | - | - |
| 1778240327 | 27.22° C | 83% | 1012.2 hPa | - | - | - | - |
| 1778239427 | 27.22° C | 85% | 1012.1 hPa | - | - | - | - |
| 1778238527 | 27.22° C | 84% | 1011.9 hPa | - | - | - | - |
| 1778237626 | 27.22° C | 85% | 1011.8 hPa | - | - | - | - |
| 1778236726 | 27.78° C | 82% | 1011.6 hPa | - | - | - | - |
| 1778235826 | 28.33° C | 81% | 1011.5 hPa | - | - | - | - |
| 1778234926 | 28.33° C | 81% | 1011.2 hPa | - | - | - | - |
| 1778234026 | 28.33° C | 80% | 1010.9 hPa | - | - | - | - |
| 1778233126 | 28.33° C | 81% | 1010.7 hPa | - | - | - | - |
| 1778232226 | 28.89° C | 81% | 1010.5 hPa | - | - | - | - |
| 1778231326 | 28.89° C | 80% | 1010.6 hPa | - | - | - | - |
| 1778230426 | 28.89° C | 79% | 1010.6 hPa | - | - | - | - |
| 1778229526 | 28.89° C | 77% | 1010.6 hPa | - | - | - | - |
| 1778228626 | 29.44° C | 76% | 1010.3 hPa | - | - | - | - |
| 1778227725 | 29.44° C | 76% | 1010.4 hPa | - | - | - | - |
| 1778226825 | 30° C | 73% | 1010.4 hPa | - | - | - | - |
| 1778225925 | 30° C | 70% | 1010.4 hPa | - | - | - | - |
| 1778225025 | 30° C | 69% | 1010.3 hPa | - | - | - | - |
| 1778224125 | 30° C | 70% | 1010.5 hPa | - | - | - | - |
| 1778223225 | 30° C | 70% | 1010.7 hPa | - | - | - | - |
* Rain since midnight (hover to see other rain measurements)
** Current wind speed in m/s (hover to see current wind gust speed)